Location: Aalen
(48.8330°N, 10.1000°E)
Time: 17:23:41
(UTC+02:00)

Transit 4A - Pass Details

Date: 07 August 2021
Orbit: 871 x 974 km, 66.8° (Epoch: 16 September)

Event Time Altitude Azimuth Distance (km) Brightness Sun altitude
Rises 23:48:53 0° 207° (SSW) 3,483 - -21.6°
Reaches altitude 10° 23:51:23 10° 206° (SSW) 2,536 - -21.7°
Exits shadow 23:54:39 35° 201° (SSW) 1,383 8.4 -22.0°
Maximum altitude 23:57:13 76° 122° (ESE) 904 7.6 -22.1°
Drops below altitude 10° 00:03:02 10° 38° (NE) 2,528 10.5 -22.5°
Sets 00:05:31 0° 37° (NE) 3,471 11.3 -22.6°
